"Timestamp","TZ","WindDir_Mean (deg)","WindSpd_Mean (km/h)","WindSpd_Min (km/h)","WindSpd_Max (km/h)","Temp_Mean (deg)","RH_Mean (%)","MSLP_Mean (hPa)","Rain_Acc (mm)","Rain_Intensity (mm/h)","Hail_Acc (hits/cm2)","Hail_Intensity (hits/cm2hr)","Solar_Mean (W/m2)"
2023/02/21 00:00:00.001,n,44,3.6,3.24,3.6,22.9,70.3,1020.82,0,0,0,0,0.025215
2023/02/21 00:01:00.002,n,4,2.52,1.08,4.32,22.9,70.6,1020.72,0,0,0,0,0.021744
2023/02/21 00:02:00.004,n,10,2.52,1.8,3.24,22.9,70.7,1020.82,0,0,0,0,0.028687
2023/02/21 00:03:00.005,n,33,2.16,1.8,2.88,22.9,70.8,1020.82,0,0,0,0,0.026093
2023/02/21 00:04:00.007,n,64,3.6,2.16,3.96,22.9,70.4,1020.82,0,0,0,0,0.027809
2023/02/21 00:05:00.007,n,55,2.88,2.52,3.6,22.9,70.1,1020.82,0,0,0,0,0.026093
2023/02/21 00:06:00.011,n,70,1.8,0.72,2.52,22.9,70.3,1020.82,0,0,0,0,0.02697
2023/02/21 00:07:00.012,n,74,3.6,2.52,3.96,22.9,69.8,1020.72,0,0,0,0,0.027809
2023/02/21 00:08:00.013,n,86,3.24,2.88,3.6,22.9,69.9,1020.72,0,0,0,0,0.028687
2023/02/21 00:09:00.015,n,57,3.24,2.52,3.96,22.9,69.9,1020.72,0,0,0,0,0.024338
2023/02/21 00:10:00.001,n,111,1.8,1.44,2.52,23,69.8,1020.72,0,0,0,0,0.026093
2023/02/21 00:11:00.001,n,88,0.72,0.36,1.08,23,69.7,1020.72,0,0,0,0,0.02697
2023/02/21 00:12:00.003,n,98,1.8,0.72,2.52,23,69.8,1020.72,0,0,0,0,0.026093
2023/02/21 00:13:00.002,n,340,2.16,0.36,5.04,23,69.7,1020.72,0,0,0,0,0.02697
2023/02/21 00:14:00.004,n,85,2.88,1.8,3.24,23,69.5,1020.72,0,0,0,0,0.029564
2023/02/21 00:15:00.005,n,49,2.52,1.8,2.88,23,69.4,1020.82,0,0,0,0,0.029564
2023/02/21 00:16:00.007,n,131,1.44,1.08,2.16,23,69.4,1020.82,0,0,0,0,0.029564
2023/02/21 00:17:00.010,n,108,1.8,1.8,2.16,23,69.4,1020.82,0,0,0,0,0.025215
2023/02/21 00:18:00.012,n,124,5.4,5.04,5.4,23.1,69.2,1020.72,0,0,0,0,0.026093
2023/02/21 00:19:00.002,n,116,3.96,3.24,4.32,23.1,69.2,1020.72,0,0,0,0,0.027809
2023/02/21 00:20:00.001,n,115,6.12,5.4,6.84,23.1,69.2,1020.72,0,0,0,0,0.027809
2023/02/21 00:21:00.002,n,107,3.96,3.24,4.32,23.1,69.1,1020.72,0,0,0,0,0.025215
2023/02/21 00:22:00.001,n,110,3.24,2.88,3.6,23.1,69,1020.72,0,0,0,0,0.02697
2023/02/21 00:23:00.002,n,121,4.68,4.32,5.04,23.1,69.1,1020.72,0,0,0,0,0.026093
2023/02/21 00:24:00.001,n,144,3.24,2.88,3.24,23.1,69,1020.72,0,0,0,0,0.02697
2023/02/21 00:25:00.001,n,133,3.24,3.24,3.6,23.1,69.1,1020.72,0,0,0,0,0.026093
2023/02/21 00:26:00.003,n,125,5.04,4.68,5.4,23.1,69.2,1020.62,0,0,0,0,0.026093
2023/02/21 00:27:00.005,n,133,4.68,3.96,5.4,23,69.3,1020.62,0,0,0,0,0.027809
2023/02/21 00:28:00.001,n,147,4.68,3.24,9.72,23,69.3,1020.62,0,0,0,0,0.022621
2023/02/21 00:29:00.001,n,151,4.68,3.96,5.4,23,69.4,1020.62,0,0,0,0,0.024338
2023/02/21 00:30:00.001,n,148,4.32,4.32,4.68,23,69.5,1020.62,0,0,0,0,0.028687
2023/02/21 00:31:00.007,n,146,5.04,5.04,5.76,23,69.5,1020.62,0,0,0,0,0.02346
2023/02/21 00:32:00.009,n,160,4.68,3.24,9.36,23,69.5,1020.62,0,0,0,0,0.026093
2023/02/21 00:33:00.010,n,149,4.68,3.96,5.4,23,69.5,1020.62,0,0,0,0,0.024338
2023/02/21 00:34:00.013,n,142,3.96,3.96,4.68,22.9,69.6,1020.62,0,0,0,0,0.025215
2023/02/21 00:35:00.001,n,147,4.32,3.6,5.04,22.9,69.5,1020.62,0,0,0,0,0.025215
2023/02/21 00:36:00.002,n,148,5.04,4.32,5.4,22.9,69.6,1020.62,0,0,0,0,0.02697
2023/02/21 00:37:00.002,n,159,4.32,3.96,4.68,22.9,69.7,1020.62,0,0,0,0,0.022621
2023/02/21 00:38:00.001,n,147,5.76,4.32,9.36,22.9,69.7,1020.52,0,0,0,0,0.026093
2023/02/21 00:39:00.004,n,141,5.4,5.04,6.84,22.9,69.7,1020.52,0,0,0,0,0.027809
2023/02/21 00:40:00.007,n,158,4.32,4.32,4.68,22.9,69.9,1020.52,0,0,0,0,0.030441
2023/02/21 00:41:00.001,n,151,4.32,4.32,4.68,22.9,70.1,1020.52,0,0,0,0,0.02697
2023/02/21 00:42:00.001,n,158,4.32,3.96,4.32,22.9,70.3,1020.52,0,0,0,0,0.025215
2023/02/21 00:43:00.014,n,161,3.6,3.6,3.6,22.8,70.5,1020.52,0,0,0,0,0.025215
2023/02/21 00:44:00.015,n,147,2.16,1.8,2.88,22.8,70.5,1020.52,0,0,0,0,0.02346
2023/02/21 00:45:00.017,n,148,4.68,3.96,5.76,22.8,70.3,1020.52,0,0,0,0,0.022621
2023/02/21 00:46:00.001,n,155,5.04,4.32,9.72,22.8,70.5,1020.52,0,0,0,0,0.024338
2023/02/21 00:47:00.004,n,133,4.68,3.96,5.04,22.8,70.4,1020.52,0,0,0,0,0.024338
2023/02/21 00:48:00.001,n,123,2.52,1.44,6.84,22.8,70.6,1020.52,0,0,0,0,0.02697
2023/02/21 00:49:00.004,n,139,1.8,1.08,2.16,22.8,70.7,1020.52,0,0,0,0,0.031319
2023/02/21 00:50:00.018,n,146,6.12,4.32,10.8,22.7,70.6,1020.52,0,0,0,0,0.030441
2023/02/21 00:51:00.013,n,150,5.04,5.04,5.76,22.7,70.6,1020.52,0,0,0,0,0.035667
2023/02/21 00:52:00.002,n,141,4.68,4.32,5.04,22.7,70.8,1020.42,0,0,0,0,0.035667
2023/02/21 00:53:00.011,n,160,3.6,3.6,3.6,22.8,71,1020.42,0,0,0,0,0.039139
2023/02/21 00:54:00.009,n,157,4.32,3.96,8.64,22.7,71.1,1020.42,0,0,0,0,0.043488
2023/02/21 00:55:00.001,n,177,4.32,3.24,9,22.7,71.5,1020.32,0,0,0,0,0.044365
2023/02/21 00:56:00.001,n,158,5.4,4.68,6.12,22.7,71.7,1020.32,0,0,0,0,0.04261
2023/02/21 00:57:00.003,n,150,5.76,4.68,10.08,22.7,71.9,1020.32,0,0,0,0,0.022621
2023/02/21 00:58:00.002,n,199,4.68,1.44,7.2,22.7,72.1,1020.22,0,0,0,0,0.028687
2023/02/21 00:59:00.003,n,151,5.76,4.68,7.2,22.6,72.2,1020.22,0,0,0,0,0.030441
2023/02/21 01:00:00.017,n,142,6.48,6.12,7.56,22.6,71.6,1020.22,0,0,0,0,0.032196
2023/02/21 01:01:00.011,n,135,4.32,3.6,4.68,22.6,71.5,1020.22,0,0,0,0,0.033913
2023/02/21 01:02:00.015,n,146,6.12,5.4,6.84,22.6,71.5,1020.22,0,0,0,0,0.035667
2023/02/21 01:03:00.008,n,125,4.32,3.6,5.04,22.6,71.6,1020.22,0,0,0,0,0.039139
2023/02/21 01:04:00.001,n,140,6.48,5.76,10.8,22.6,71.4,1020.22,0,0,0,0,0.037422
2023/02/21 01:05:00.001,n,135,5.04,4.32,5.4,22.6,71.4,1020.22,0,0,0,0,0.044365
2023/02/21 01:06:00.001,n,149,6.12,5.4,6.48,22.6,71.2,1020.22,0,0,0,0,0.040016
2023/02/21 01:07:00.007,n,137,5.76,5.4,6.48,22.6,71,1020.22,0,0,0,0,0.042648
2023/02/21 01:08:00.017,n,149,4.68,2.88,5.76,22.6,71.1,1020.22,0,0,0,0,0.042648
2023/02/21 01:09:00.012,n,135,3.24,2.52,3.96,22.6,71.1,1020.12,0,0,0,0,0.045242
2023/02/21 01:10:00.006,n,162,2.52,2.16,2.52,22.6,71.3,1020.12,0,0,0,0,0.046082
2023/02/21 01:11:00.006,n,155,5.4,3.6,11.16,22.6,71.4,1020.12,0,0,0,0,0.022621
2023/02/21 01:12:00.010,n,153,6.12,5.76,6.12,22.6,71.6,1020.12,0,0,0,0,0.026932
2023/02/21 01:13:00.002,n,144,5.76,4.32,7.2,22.6,71.6,1020.12,0,0,0,0,0.029564
2023/02/21 01:14:00.006,n,153,7.2,6.48,7.56,22.6,71.6,1020.02,0,0,0,0,0.031319
2023/02/21 01:15:00.007,n,156,6.84,5.76,11.16,22.5,71.6,1020.02,0,0,0,0,0.033035
2023/02/21 01:16:00.005,n,168,8.28,3.24,13.32,22.5,71.4,1020.02,0,0,0,0,0.029564
2023/02/21 01:17:00.003,n,195,4.68,0.36,6.48,22.5,71.6,1020.02,0,0,0,0,0.030441
2023/02/21 01:18:00.002,n,158,3.6,1.8,7.2,22.5,71.6,1020.02,0,0,0,0,0.031319
2023/02/21 01:19:00.013,n,123,4.32,3.24,4.68,22.5,71.7,1020.02,0,0,0,0,0.032158
2023/02/21 01:20:00.001,n,146,4.68,4.68,5.04,22.5,71.7,1020.02,0,0,0,0,0.03479
2023/02/21 01:21:00.004,n,98,1.8,0.72,2.52,22.5,71.8,1020.02,0,0,0,0,0.031319
2023/02/21 01:22:00.002,n,116,3.96,2.88,5.76,22.5,71.7,1020.02,0,0,0,0,0.033951
2023/02/21 01:23:00.004,n,101,6.12,5.76,6.48,22.5,71.7,1020.02,0,0,0,0,0.036545
2023/02/21 01:24:00.001,n,127,4.68,3.96,5.04,22.5,71.8,1020.02,0,0,0,0,0.036545
2023/02/21 01:25:00.001,n,102,4.32,3.6,5.04,22.5,71.7,1019.92,0,0,0,0,0.033951
2023/02/21 01:26:00.011,n,141,6.48,5.76,7.2,22.5,71.7,1019.92,0,0,0,0,0.038261
2023/02/21 01:27:00.008,n,143,4.32,3.6,4.68,22.5,71.7,1019.92,0,0,0,0,0.038261
2023/02/21 01:28:00.013,n,136,5.04,4.32,5.4,22.5,71.8,1020.02,0,0,0,0,0.039139
2023/02/21 01:29:00.013,n,148,4.32,3.96,5.4,22.5,71.8,1020.02,0,0,0,0,0.036545
2023/02/21 01:30:00.019,n,128,4.32,3.6,5.04,22.5,71.8,1019.92,0,0,0,0,0.038261
2023/02/21 01:31:00.001,n,142,1.44,0.72,2.52,22.5,71.8,1020.02,0,0,0,0,0.040016
2023/02/21 01:32:00.003,n,126,3.96,3.96,4.32,22.5,71.8,1019.92,0,0,0,0,0.035667
2023/02/21 01:33:00.005,n,145,4.68,3.6,5.4,22.5,71.8,1019.92,0,0,0,0,0.044327
2023/02/21 01:34:00.001,n,135,4.68,4.68,5.04,22.5,71.9,1019.92,0,0,0,0,0.037384
2023/02/21 01:35:00.017,n,122,4.68,4.32,5.04,22.5,71.9,1019.92,0,0,0,0,0.039139
2023/02/21 01:36:00.007,n,125,3.96,2.88,4.32,22.5,71.8,1019.92,0,0,0,0,0.040894
2023/02/21 01:37:00.019,n,145,2.88,1.8,7.2,22.5,71.9,1019.92,0,0,0,0,0.039139
2023/02/21 01:38:00.005,n,122,5.04,4.32,6.84,22.5,71.8,1019.92,0,0,0,0,0.038261
2023/02/21 01:39:00.013,n,135,3.96,3.24,4.32,22.5,71.8,1019.92,0,0,0,0,0.040016
2023/02/21 01:40:00.002,n,119,2.52,2.16,3.24,22.5,71.8,1019.92,0,0,0,0,0.04261
2023/02/21 01:41:00.002,n,149,3.6,3.24,3.96,22.5,71.8,1019.92,0,0,0,0,0.04612
2023/02/21 01:42:00.001,n,132,4.32,3.24,5.4,22.5,71.8,1019.92,0,0,0,0,0.047836
2023/02/21 01:43:00.013,n,145,2.16,1.08,3.96,22.5,71.8,1019.92,0,0,0,0,0.04261
2023/02/21 01:44:00.003,n,122,2.16,2.16,2.52,22.5,71.8,1019.92,0,0,0,0,0.043488
2023/02/21 01:45:00.009,n,126,5.4,4.68,5.76,22.5,71.7,1019.92,0,0,0,0,0.043488
2023/02/21 01:46:00.004,n,136,5.76,5.04,5.76,22.5,71.7,1019.92,0,0,0,0,0.045242
2023/02/21 01:47:00.011,n,154,3.24,2.52,3.96,22.5,71.8,1019.92,0,0,0,0,0.04612
2023/02/21 01:48:00.017,n,125,3.6,3.24,3.96,22.5,71.7,1019.92,0,0,0,0,0.04261
2023/02/21 01:49:00.001,n,146,3.6,3.6,3.96,22.5,71.7,1019.92,0,0,0,0,0.046959
2023/02/21 01:50:00.001,n,138,3.24,2.88,3.6,22.5,71.6,1019.92,0,0,0,0,0.040016
2023/02/21 01:51:00.008,n,153,3.6,1.8,7.56,22.5,71.6,1019.82,0,0,0,0,0.047836
2023/02/21 01:52:00.004,n,167,5.04,3.6,9,22.5,71.6,1019.82,0,0,0,0,0.040894
2023/02/21 01:53:00.004,n,165,3.6,3.24,3.96,22.5,71.7,1019.82,0,0,0,0,0.048714
2023/02/21 01:54:00.006,n,156,5.04,3.24,8.28,22.5,71.7,1019.82,0,0,0,0,0.024338
2023/02/21 01:55:00.001,n,152,2.88,2.52,3.96,22.5,71.7,1019.82,0,0,0,0,0.026093
2023/02/21 01:56:00.015,n,175,5.4,3.6,9,22.5,71.8,1019.72,0,0,0,0,0.026093
2023/02/21 01:57:00.013,n,138,3.6,2.88,4.32,22.5,71.9,1019.72,0,0,0,0,0.02697
2023/02/21 01:58:00.001,n,157,6.12,5.76,6.48,22.6,72,1019.72,0,0,0,0,0.026093
2023/02/21 01:59:00.001,n,153,4.32,3.6,5.04,22.6,72,1019.72,0,0,0,0,0.028687
2023/02/21 02:00:00.002,n,131,2.16,1.44,2.88,22.6,72,1019.72,0,0,0,0,0.028687
2023/02/21 02:01:00.001,n,165,4.32,3.6,8.64,22.6,72,1019.72,0,0,0,0,0.030441
2023/02/21 02:02:00.001,n,170,7.2,4.32,9.72,22.6,72,1019.72,0,0,0,0,0.02697
2023/02/21 02:03:00.013,n,161,5.04,2.88,9.36,22.6,72,1019.72,0,0,0,0,0.032196
2023/02/21 02:04:00.018,n,161,3.96,2.52,7.56,22.6,72,1019.72,0,0,0,0,0.027847
2023/02/21 02:05:00.004,n,168,5.4,5.04,9.72,22.6,71.9,1019.72,0,0,0,0,0.030441
2023/02/21 02:06:00.005,n,165,3.6,2.88,7.92,22.6,71.9,1019.72,0,0,0,0,0.033073
2023/02/21 02:07:00.001,n,172,3.6,3.24,4.32,22.6,71.9,1019.72,0,0,0,0,0.033073
2023/02/21 02:08:00.001,n,178,4.32,2.88,7.92,22.6,71.8,1019.72,0,0,0,0,0.028687
2023/02/21 02:09:00.007,n,165,3.96,3.6,8.64,22.6,71.7,1019.72,0,0,0,0,0.02697
2023/02/21 02:10:00.007,n,143,3.24,2.88,3.6,22.6,71.7,1019.72,0,0,0,0,0.030441
2023/02/21 02:11:00.002,n,157,2.88,2.88,2.88,22.6,71.6,1019.72,0,0,0,0,0.032196
2023/02/21 02:12:00.004,n,139,3.6,2.52,4.32,22.6,71.6,1019.72,0,0,0,0,0.027847
2023/02/21 02:13:00.005,n,167,3.96,3.24,9,22.7,71.5,1019.72,0,0,0,0,0.031319
2023/02/21 02:14:00.005,n,159,2.52,2.52,2.88,22.6,71.4,1019.72,0,0,0,0,0.035667
2023/02/21 02:15:00.003,n,169,5.4,4.32,10.08,22.6,71.4,1019.62,0,0,0,0,0.032196
2023/02/21 02:16:00.001,n,167,3.6,2.88,8.28,22.6,71.5,1019.62,0,0,0,0,0.029564
2023/02/21 02:17:00.001,n,146,3.24,2.88,3.6,22.7,71.3,1019.62,0,0,0,0,0.030441
2023/02/21 02:18:00.020,n,174,3.6,2.52,7.56,22.7,71.3,1019.62,0,0,0,0,0.029564
2023/02/21 02:19:00.005,n,155,4.68,3.24,9.72,22.7,71.2,1019.62,0,0,0,0,0.03479
2023/02/21 02:20:00.005,n,178,6.12,3.96,9.36,22.7,71.3,1019.62,0,0,0,0,0.031319
2023/02/21 02:21:00.005,n,146,4.32,3.6,8.64,22.7,71.3,1019.62,0,0,0,0,0.032196
2023/02/21 02:22:00.007,n,178,5.04,2.52,8.28,22.7,71.4,1019.52,0,0,0,0,0.032196
2023/02/21 02:23:00.001,n,155,5.76,5.76,6.48,22.7,71.3,1019.52,0,0,0,0,0.037422
2023/02/21 02:24:00.003,n,180,5.04,3.6,9,22.7,71.5,1019.52,0,0,0,0,0.037422
2023/02/21 02:25:00.002,n,142,2.52,2.16,2.88,22.7,71.5,1019.52,0,0,0,0,0.036507
2023/02/21 02:26:00.007,n,155,4.68,4.68,5.04,22.7,71.5,1019.52,0,0,0,0,0.03479
2023/02/21 02:27:00.001,n,191,2.88,1.8,6.48,22.7,71.5,1019.52,0,0,0,0,0.035667
2023/02/21 02:28:00.012,n,174,5.76,2.88,8.64,22.7,71.6,1019.52,0,0,0,0,0.03479
2023/02/21 02:29:00.002,n,164,1.8,1.44,2.16,22.7,71.6,1019.52,0,0,0,0,0.040894
2023/02/21 02:30:00.003,n,202,3.6,3.24,3.6,22.7,71.6,1019.52,0,0,0,0,0.037422
2023/02/21 02:31:00.017,n,191,5.04,3.6,6.84,22.7,71.7,1019.52,0,0,0,0,0.03479
2023/02/21 02:32:00.009,n,188,7.56,5.76,9,22.7,71.5,1019.52,0,0,0,0,0.040016
2023/02/21 02:33:00.014,n,210,2.88,2.52,3.6,22.7,71.6,1019.62,0,0,0,0,0.040894
2023/02/21 02:34:00.003,n,209,3.24,2.16,3.96,22.7,71.8,1019.62,0,0,0,0,0.039139
2023/02/21 02:35:00.001,n,202,4.68,3.96,7.56,22.7,71.5,1019.62,0,0,0,0,0.041733
2023/02/21 02:36:00.001,n,176,4.68,4.32,5.76,22.7,71.3,1019.62,0,0,0,0,0.037422
2023/02/21 02:37:00.004,n,170,2.88,2.16,3.6,22.7,71.5,1019.62,0,0,0,0,0.040016
2023/02/21 02:38:00.002,n,200,3.24,2.88,3.6,22.7,71.6,1019.62,0,0,0,0,0.039139
2023/02/21 02:39:00.003,n,227,3.24,1.08,4.68,22.7,72.3,1019.62,0,0,0,0,0.041733
2023/02/21 02:40:00.010,n,232,2.88,2.16,3.96,22.7,73.8,1019.62,0,0,0,0,0.045242
2023/02/21 02:41:00.002,n,187,3.24,2.16,4.32,22.7,72.8,1019.62,0,0,0,0,0.041733
2023/02/21 02:42:00.014,n,285,6.48,5.4,7.2,22.7,74.2,1019.62,0,0,0,0,0.040016
2023/02/21 02:43:00.001,n,257,5.04,1.44,5.76,22.7,74.3,1019.72,0,0,0,0,0.039139
2023/02/21 02:44:00.005,n,264,6.12,1.8,6.84,22.7,73.5,1019.62,0,0,0,0,0.040894
2023/02/21 02:45:00.002,n,273,5.04,1.44,8.28,22.6,75.2,1019.62,0,0,0,0,0.041733
2023/02/21 02:46:00.002,n,271,7.2,5.76,9,22.6,74.5,1019.62,0,0,0,0,0.040894
2023/02/21 02:47:00.020,n,262,3.6,2.16,4.68,22.5,74.3,1019.62,0,0,0,0,0.040894
2023/02/21 02:48:00.006,n,223,3.96,2.16,4.68,22.4,74.7,1019.52,0,0,0,0,0.041733
2023/02/21 02:49:00.010,n,234,3.24,2.16,5.04,22.4,74.6,1019.52,0,0,0,0,0.040894
2023/02/21 02:50:00.014,n,23,2.52,1.08,4.68,22.4,75.6,1019.52,0,0,0,0,0.043488
2023/02/21 02:51:00.004,n,213,2.52,1.08,5.04,22.3,74.5,1019.52,0,0,0,0,0.04261
2023/02/21 02:52:00.002,n,196,2.88,1.8,5.04,22.3,74.4,1019.52,0,0,0,0,0.044365
2023/02/21 02:53:00.010,n,292,2.16,1.44,2.88,22.3,76,1019.52,0,0,0,0,0.02697
2023/02/21 02:54:00.002,n,167,2.88,1.44,5.04,22.3,75.5,1019.52,0,0,0,0,0.032196
2023/02/21 02:55:00.002,n,121,2.16,1.08,4.32,22.3,75.1,1019.52,0,0,0,0,0.028725
2023/02/21 02:56:00.007,n,172,4.32,3.24,6.48,22.2,75.2,1019.52,0,0,0,0,0.030441
2023/02/21 02:57:00.010,n,175,4.32,2.88,7.92,22.2,75.4,1019.52,0,0,0,0,0.029564
2023/02/21 02:58:00.019,n,205,3.24,1.08,4.32,22.1,75.6,1019.52,0,0,0,0,0.030441
2023/02/21 02:59:00.006,n,319,1.08,0.72,1.08,22.1,75.7,1019.52,0,0,0,0,0.028725
2023/02/21 03:00:00.014,n,150,5.04,4.32,7.56,22.1,75.6,1019.52,0,0,0,0,0.029564
2023/02/21 03:01:00.001,n,218,3.6,1.8,4.32,22.1,75.6,1019.52,0,0,0,0,0.03479
2023/02/21 03:02:00.002,n,208,1.8,0.36,5.76,22.1,75.7,1019.42,0,0,0,0,0.032196
2023/02/21 03:03:00.007,n,134,4.68,4.32,5.4,22.1,75.6,1019.42,0,0,0,0,0.032196
2023/02/21 03:04:00.009,n,205,3.96,2.52,6.12,22.1,76.1,1019.42,0,0,0,0,0.033951
2023/02/21 03:05:00.008,n,221,2.88,1.08,5.04,22.2,76.1,1019.42,0,0,0,0,0.037422
2023/02/21 03:06:00.009,n,176,8.28,5.04,10.8,22.2,76.2,1019.42,0,0,0,0,0.033951
2023/02/21 03:07:00.010,n,165,2.52,1.08,6.12,22.2,76.7,1019.42,0,0,0,0,0.032196
2023/02/21 03:08:00.012,n,183,5.4,3.6,7.92,22.2,76,1019.52,0,0,0,0,0.033073
2023/02/21 03:09:00.006,n,283,4.32,2.52,5.76,22.1,75.8,1019.52,0,0,0,0,0.03479
2023/02/21 03:10:00.002,n,199,4.32,2.88,5.4,22.1,75.4,1019.52,0,0,0,0,0.031357
2023/02/21 03:11:00.001,n,230,3.24,2.16,4.68,22.1,75.9,1019.52,0,0,0,0,0.033073
2023/02/21 03:12:00.001,n,239,3.6,1.44,5.4,22.2,75.2,1019.52,0,0,0,0,0.03479
2023/02/21 03:13:00.001,n,176,5.04,3.96,7.92,22.1,75,1019.42,0,0,0,0,0.032196
2023/02/21 03:14:00.001,n,169,7.2,3.6,7.92,22.1,74.7,1019.42,0,0,0,0,0.031357
2023/02/21 03:15:00.009,n,123,1.08,0.72,1.08,22.1,75,1019.52,0,0,0,0,0.033073
2023/02/21 03:16:00.003,n,168,4.32,2.52,7.56,22.2,75.2,1019.52,0,0,0,0,0.033073
2023/02/21 03:17:00.011,n,192,2.52,1.08,5.4,22.2,75,1019.52,0,0,0,0,0.030441
2023/02/21 03:18:00.012,n,163,3.6,2.52,3.96,22.2,76.1,1019.52,0,0,0,0,0.033951
2023/02/21 03:19:00.001,n,213,2.16,1.08,4.68,22.3,76.5,1019.52,0,0,0,0,0.03479
2023/02/21 03:20:00.015,n,201,2.16,1.08,3.24,22.3,75.8,1019.52,0,0,0,0,0.030441
2023/02/21 03:21:00.001,n,209,2.88,1.8,6.12,22.3,75.9,1019.52,0,0,0,0,0.03479
2023/02/21 03:22:00.012,n,191,1.8,0.36,6.12,22.3,75.3,1019.52,0,0,0,0,0.033073
2023/02/21 03:23:00.005,n,193,2.52,1.08,4.68,22.2,75.3,1019.52,0,0,0,0,0.032196
2023/02/21 03:24:00.011,n,231,1.08,0.72,1.44,22.2,75.3,1019.52,0,0,0,0,0.03479
2023/02/21 03:25:00.002,n,272,2.52,1.8,2.88,22.2,75.4,1019.42,0,0,0,0,0.028725
2023/02/21 03:26:00.001,n,174,5.76,4.68,11.52,22.2,75.3,1019.52,0,0,0,0,0.032196
2023/02/21 03:27:00.009,n,47,0.36,0,0.36,22.2,75.8,1019.52,0,0,0,0,0.033951
2023/02/21 03:28:00.001,n,324,1.44,0.36,5.76,22.2,75.4,1019.52,0,0,0,0,0.031357
2023/02/21 03:29:00.002,n,151,6.84,4.68,10.08,22.2,74.9,1019.52,0,0,0,0,0.033073
2023/02/21 03:30:00.001,n,181,5.4,3.6,10.08,22.2,75.1,1019.52,0,0,0,0,0.036583
2023/02/21 03:31:00.002,n,179,3.96,2.52,7.2,22.2,75.6,1019.52,0,0,0,0,0.033951
2023/02/21 03:32:00.008,n,155,5.4,3.96,9.72,22.2,74.8,1019.52,0,0,0,0,0.033073
2023/02/21 03:33:00.010,n,217,3.96,3.24,4.32,22.2,75,1019.52,0,0,0,0,0.028725
2023/02/21 03:34:00.008,n,177,3.6,2.88,4.32,22.2,75.3,1019.52,0,0,0,0,0.029564
2023/02/21 03:35:00.006,n,195,2.88,2.16,4.68,22.2,75.4,1019.62,0,0,0,0,0.033951
2023/02/21 03:36:00.009,n,259,5.4,5.04,5.76,22.2,75.1,1019.62,0,0,0,0,0.031357
2023/02/21 03:37:00.001,n,177,2.88,1.44,3.96,22.2,75.8,1019.62,0,0,0,0,0.033073
2023/02/21 03:38:00.002,n,194,3.6,2.52,5.4,22.2,76.4,1019.52,0,0,0,0,0.032196
2023/02/21 03:39:00.014,n,104,1.44,0.72,2.16,22.2,75.3,1019.52,0,0,0,0,0.030441
2023/02/21 03:40:00.001,n,214,2.88,2.52,3.24,22.2,75.7,1019.52,0,0,0,0,0.033951
2023/02/21 03:41:00.002,n,180,3.96,1.44,5.04,22.2,75.9,1019.52,0,0,0,0,0.033951
2023/02/21 03:42:00.008,n,188,5.4,4.32,7.92,22.1,74.9,1019.52,0,0,0,0,0.032196
2023/02/21 03:43:00.001,n,200,3.6,2.16,5.4,22.1,75.4,1019.42,0,0,0,0,0.03479
2023/02/21 03:44:00.002,n,184,7.92,5.04,12.24,22.1,74.8,1019.42,0,0,0,0,0.032196
2023/02/21 03:45:00.014,n,189,6.48,3.24,9,22.1,74.8,1019.42,0,0,0,0,0.033951
2023/02/21 03:46:00.001,n,171,9,5.04,11.16,22.1,74.6,1019.42,0,0,0,0,0.033951
2023/02/21 03:47:00.001,n,167,5.76,3.96,9.36,22.1,74.8,1019.42,0,0,0,0,0.031357
2023/02/21 03:48:00.001,n,233,4.32,3.24,5.76,22.1,74.7,1019.42,0,0,0,0,0.033073
2023/02/21 03:49:00.001,n,268,3.96,1.08,4.68,22.1,75.8,1019.42,0,0,0,0,0.029564
2023/02/21 03:50:00.005,n,302,3.24,2.52,4.68,22.1,75.2,1019.42,0,0,0,0,0.033951
2023/02/21 03:51:00.010,n,185,7.92,4.68,9.72,22.1,74.5,1019.42,0,0,0,0,0.031357
2023/02/21 03:52:00.009,n,175,5.76,2.16,8.64,22.1,74.6,1019.42,0,0,0,0,0.033951
2023/02/21 03:53:00.011,n,237,3.24,2.52,4.32,22.1,74.9,1019.42,0,0,0,0,0.033073
2023/02/21 03:54:00.004,n,176,4.68,2.88,7.56,22.1,74.8,1019.42,0,0,0,0,0.035667
2023/02/21 03:55:00.002,n,187,4.68,2.88,8.28,22.1,74.6,1019.42,0,0,0,0,0.030441
2023/02/21 03:56:00.001,n,272,5.76,4.68,6.84,22.1,75.4,1019.52,0,0,0,0,0.033073
2023/02/21 03:57:00.001,n,249,1.8,0.72,4.32,22.1,74.9,1019.52,0,0,0,0,0.033073
2023/02/21 03:58:00.008,n,321,4.68,2.88,8.64,22.1,75.9,1019.52,0,0,0,0,0.029564
2023/02/21 03:59:00.002,n,227,2.88,1.8,6.48,22.1,75.3,1019.52,0,0,0,0,0.027847
2023/02/21 04:00:00.021,n,217,2.52,1.8,4.32,22.1,74.9,1019.52,0,0,0,0,0.031357
2023/02/21 04:01:00.007,n,179,3.24,1.08,6.84,22.1,75,1019.52,0,0,0,0,0.027847
2023/02/21 04:02:00.012,n,211,2.52,1.44,3.96,22.1,76.3,1019.62,0,0,0,0,0.030441
2023/02/21 04:03:00.006,n,97,1.8,0.36,6.12,22.1,75.5,1019.62,0,0,0,0,0.028725
2023/02/21 04:04:00.001,n,215,1.8,1.08,2.52,22.1,75.7,1019.62,0,0,0,0,0.030441
2023/02/21 04:05:00.001,n,176,2.88,1.8,3.6,22.1,75.3,1019.62,0,0,0,0,0.031357
2023/02/21 04:06:00.001,n,250,4.32,2.52,4.68,22.1,75.1,1019.62,0,0,0,0,0.032196
2023/02/21 04:07:00.005,n,233,3.6,1.8,4.68,22.1,75.9,1019.62,0,0,0,0,0.027847
2023/02/21 04:08:00.001,n,224,3.96,1.8,5.04,22.1,75.8,1019.52,0,0,0,0,0.029564
2023/02/21 04:09:00.007,n,192,3.24,2.52,3.6,22.1,75.5,1019.52,0,0,0,0,0.027847
2023/02/21 04:10:00.010,n,253,3.96,2.52,4.32,22,75.4,1019.52,0,0,0,0,0.029564
2023/02/21 04:11:00.007,n,212,2.88,1.44,3.96,22,75.3,1019.52,0,0,0,0,0.028725
2023/02/21 04:12:00.019,n,180,2.88,1.08,6.48,22,75.2,1019.52,0,0,0,0,0.028725
2023/02/21 04:13:00.001,n,275,0.72,0.36,1.8,22,75.4,1019.52,0,0,0,0,0.027847
2023/02/21 04:14:00.001,n,131,1.8,1.08,2.52,21.9,75,1019.52,0,0,0,0,0.030441
2023/02/21 04:15:00.002,n,151,4.32,2.16,7.2,21.9,75,1019.52,0,0,0,0,0.028725
2023/02/21 04:16:00.001,n,155,4.32,1.8,6.48,21.9,75,1019.52,0,0,0,0,0.027847
2023/02/21 04:17:00.003,n,140,3.24,1.44,4.32,21.9,75,1019.52,0,0,0,0,0.028725
2023/02/21 04:18:00.009,n,165,3.96,2.52,7.2,21.9,75.1,1019.52,0,0,0,0,0.022621
2023/02/21 04:19:00.001,n,171,6.48,2.16,7.92,21.9,75.1,1019.52,0,0,0,0,0.024376
2023/02/21 04:20:00.002,n,256,0.72,0.36,1.08,21.9,75.4,1019.52,0,0,0,0,0.023499
2023/02/21 04:21:00.013,n,205,2.52,1.44,5.76,21.9,75.4,1019.52,0,0,0,0,0.024376
2023/02/21 04:22:00.001,n,296,2.88,2.52,3.24,21.9,75.4,1019.52,0,0,0,0,0.023499
2023/02/21 04:23:00.001,n,142,1.8,1.44,1.8,21.9,75.8,1019.52,0,0,0,0,0.023499
2023/02/21 04:24:00.002,n,170,6.84,3.96,10.08,21.9,75.6,1019.52,0,0,0,0,0.021744
2023/02/21 04:25:00.001,n,172,6.84,3.96,10.8,21.8,75.7,1019.52,0,0,0,0,0.01915
2023/02/21 04:26:00.001,n,186,5.04,2.52,7.2,21.8,75.8,1019.52,0,0,0,0,0.01915
2023/02/21 04:27:00.002,n,166,10.8,6.12,12.6,21.8,75.7,1019.52,0,0,0,0,0.016518
2023/02/21 04:28:00.002,n,169,1.8,0.72,5.04,21.8,75.8,1019.52,0,0,0,0,0.020027
2023/02/21 04:29:00.004,n,170,8.28,5.76,11.88,21.8,75.7,1019.52,0,0,0,0,0.015678
2023/02/21 04:30:00.007,n,160,2.88,0.72,8.64,21.8,75.8,1019.52,0,0,0,0,0.017433
2023/02/21 04:31:00.002,n,172,3.6,3.24,3.96,21.8,75.7,1019.52,0,0,0,0,0.013084
2023/02/21 04:32:00.002,n,120,2.88,2.52,3.6,21.8,76,1019.52,0,0,0,0,0.020866
2023/02/21 04:33:00.002,n,165,2.52,1.44,3.96,21.8,75.8,1019.62,0,0,0,0,0.026932
2023/02/21 04:34:00.001,n,265,3.24,2.16,3.96,21.8,76.3,1019.62,0,0,0,0,0.024338
2023/02/21 04:35:00.001,n,196,2.88,1.44,6.84,21.8,76.1,1019.62,0,0,0,0,0.023499
2023/02/21 04:36:00.005,n,173,0.72,0.36,1.08,21.8,76.8,1019.62,0,0,0,0,0.019989
2023/02/21 04:37:00.008,n,156,1.08,0.36,6.12,21.8,76.4,1019.62,0,0,0,0,0.014763
2023/02/21 04:38:00.010,n,167,2.88,2.52,3.6,21.8,76.3,1019.62,0,0,0,0,0.01564
2023/02/21 04:39:00.012,n,172,2.88,2.88,3.24,21.8,76.3,1019.62,0,0,0,0,0.01133
2023/02/21 04:40:00.001,n,162,3.6,2.88,3.96,21.8,76.2,1019.72,0,0,0,0,0.02346
2023/02/21 04:41:00.001,n,141,3.6,2.88,4.68,21.7,76.1,1019.72,0,0,0,0,0.027847
2023/02/21 04:42:00.002,n,232,2.52,1.8,2.88,21.7,76.7,1019.72,0,0,0,0,0.02697
2023/02/21 04:43:00.005,n,163,6.48,3.24,9.36,21.7,76.4,1019.72,0,0,0,0,0.02346
2023/02/21 04:44:00.006,n,165,6.48,4.32,10.8,21.7,76,1019.82,0,0,0,0,0.022621
2023/02/21 04:45:00.009,n,164,10.8,7.92,14.76,21.7,75.8,1019.82,0,0,0,0,0.021744
2023/02/21 04:46:00.010,n,197,2.52,0.72,3.96,21.7,75.7,1019.82,0,0,0,0,0.017395
2023/02/21 04:47:00.016,n,180,2.16,0.72,6.84,21.7,75.6,1019.82,0,0,0,0,0.023499
2023/02/21 04:48:00.017,n,10,0.36,0.36,0.72,21.7,75.8,1019.92,0,0,0,0,0.022621
2023/02/21 04:49:00.001,n,228,1.44,0.36,5.04,21.7,75.9,1019.92,0,0,0,0,0.025215
2023/02/21 04:50:00.003,n,254,1.44,0.36,5.4,21.7,75.7,1019.92,0,0,0,0,0.026131
2023/02/21 04:51:00.002,n,203,2.16,1.08,5.4,21.8,75.7,1019.92,0,0,0,0,0.023499
2023/02/21 04:52:00.002,n,244,1.44,1.08,4.32,21.8,75.7,1019.92,0,0,0,0,0.026131
2023/02/21 04:53:00.001,n,93,0.72,0.36,6.12,21.8,75.8,1019.92,0,0,0,0,0.028725
2023/02/21 04:54:00.001,n,50,0.72,0.36,1.08,21.8,75.8,1020.02,0,0,0,0,0.01915
2023/02/21 04:55:00.005,n,285,0.36,0.36,0.36,21.8,75.7,1020.02,0,0,0,0,0.022621
2023/02/21 04:56:00.006,n,353,1.44,0.72,4.68,21.8,75.7,1020.02,0,0,0,0,0.020905